Location: Central Falls
(41.8900°N, 71.3929°W)
Time: 14:37:01
(UTC+00:00)

Courier 1B Rocket - Pass Details

Date: 05 December 2023
Orbit: 920 x 1202 km, 28.2° (Epoch: 01 March)

Event Time Altitude Azimuth Distance (km) Brightness Sun altitude
Rises 21:28:21 0° 252° (WSW) 3,557 10.4 -3.1°
Reaches altitude 10° 21:33:00 10° 221° (SW) 2,601 8.6 -3.9°
Maximum altitude 21:35:00 12° 202° (SSW) 2,487 7.9 -4.2°
Drops below altitude 10° 21:37:00 10° 183° (S) 2,607 7.7 -4.5°
Sets 21:41:41 0° 152° (SSE) 3,577 7.9 -5.3°
